Location: Blue Sky Observatory
(43.1153°N, 70.9036°W)
Time: 17:28:31
(UTC-04:00)

Amateur Radio Satellites - All Passes

Search period start: 21 August 2017 16:58
Search period end: 22 August 2017 16:58
Location: Blue Sky Observatory, 43.1153°N, 70.9036°W

Satellite Date Start Highest point End Downlink Frequencies (MHz)
Time Altitude Azimuth
KAITUO 1B 21 Aug 17:03:52 17:05:44 13° 64° (ENE) 17:07:36 145.475/437.950
YUBILEINY 21 Aug 17:11:10 17:19:31 47° 286° (WNW) 17:27:54 435.215
DOVE 4 21 Aug 17:11:27 17:16:44 77° 75° (ENE) 17:21:54 437.250
MOZHAYETS 4 21 Aug 17:20:50 17:24:15 21° 295° (WNW) 17:27:40
KKS-1 21 Aug 17:26:05 17:30:22 45° 100° (E) 17:34:35 437.445
LilacSat-2 21 Aug 17:27:00 17:30:27 34° 71° (ENE) 17:33:55 437.200
XW-2D 21 Aug 17:30:16 17:33:44 36° 71° (ENE) 17:37:13 145.860 - 145.880
NUDT-PHONESAT 21 Aug 17:34:02 17:37:11 28° 70° (ENE) 17:40:22 437.300
ISS 21 Aug 17:38:48 17:40:43 15° 228° (SW) 17:42:38 437.550
XW-2B 21 Aug 17:41:10 17:44:46 47° 73° (ENE) 17:48:25 145.730 - 145.750
CUBESAT XI-V 21 Aug 17:41:35 17:46:13 55° 287° (WNW) 17:50:48 437.345
BEESAT 21 Aug 17:44:09 17:46:16 13° 301° (WNW) 17:48:22 436.000
nSIGHT-1 21 Aug 17:46:53 17:48:06 12° 230° (SW) 17:49:18 .
AO-7 21 Aug 17:50:32 17:50:43 10° 276° (W) 17:50:55 .
RS-15 21 Aug 17:56:14 18:07:09 35° 28° (NNE) 18:17:34 29.354- 29.394
XW-2C 21 Aug 18:00:08 18:03:53 84° 77° (ENE) 18:07:41 145.795 - 145.815
STARS 21 Aug 18:02:36 18:06:48 46° 100° (E) 18:10:59 437.465
SEEDS 21 Aug 18:03:59 18:05:21 11° 61° (ENE) 18:06:42 437.485
XW-2F 21 Aug 18:11:42 18:15:25 74° 259° (W) 18:19:12 145.980 - 146.000
XW-2A 21 Aug 18:26:02 18:27:19 12° 65° (ENE) 18:28:35 145.665 - 145.685
HO-68 21 Aug 18:29:59 18:36:53 54° 67° (ENE) 18:43:49 435.675
CUTE-I 21 Aug 18:30:15 18:35:33 63° 258° (WSW) 18:40:52 437.470
KAITUO 1B 21 Aug 18:35:46 18:39:20 45° 261° (W) 18:42:57 145.475/437.950
O/OREOS (USA 219) 21 Aug 18:39:02 18:43:13 35° 60° (ENE) 18:47:23 437.305
AAUSAT CUBESAT 2 21 Aug 18:46:02 18:48:22 15° 64° (ENE) 18:50:44 437.432
CUTE 1.7 + AOD 2 21 Aug 18:50:01 18:54:08 54° 73° (ENE) 18:58:19 437.475
DOVE 4 21 Aug 18:52:11 18:54:52 14° 271° (W) 18:57:34 437.250
UWE-3 21 Aug 19:01:20 19:04:34 22° 67° (ENE) 19:07:47 435.000/436.395/437.385
LilacSat-2 21 Aug 19:02:20 19:04:50 17° 268° (W) 19:07:21 437.200
KKS-1 21 Aug 19:03:28 19:06:34 19° 296° (WNW) 19:09:39 437.445
XW-2D 21 Aug 19:05:42 19:08:03 16° 268° (W) 19:10:25 145.860 - 145.880
NUDT-PHONESAT 21 Aug 19:08:23 19:11:04 19° 266° (W) 19:13:48 437.300
CUBEBUG 2 21 Aug 19:09:21 19:13:25 46° 73° (ENE) 19:17:26 437.445
Oscar 11 21 Aug 19:10:21 19:11:33 11° 60° (ENE) 19:12:45 .
XW-2B 21 Aug 19:17:39 19:19:13 12° 269° (W) 19:20:50 145.730 - 145.750
SEEDS 21 Aug 19:36:12 19:40:24 74° 259° (W) 19:44:39 437.485
ZACube-1 21 Aug 19:38:45 19:42:23 30° 70° (ENE) 19:46:01 437.345
STARS 21 Aug 19:39:50 19:42:48 18° 296° (WNW) 19:45:45 437.465
XW-2A 21 Aug 19:56:31 19:59:40 40° 261° (W) 20:02:51 145.665 - 145.685
AO-73 21 Aug 19:59:05 20:03:00 44° 73° (ENE) 20:06:57 145.935
RS-15 21 Aug 20:09:23 20:21:35 86° 56° (ENE) 20:33:03 29.354- 29.394
STRAND 1 21 Aug 20:10:44 20:15:50 69° 102° (ESE) 20:20:55 437.568
O/OREOS (USA 219) 21 Aug 20:18:45 20:22:26 25° 257° (WSW) 20:26:09 437.305
HO-68 21 Aug 20:18:45 20:24:54 31° 265° (W) 20:31:05 435.675
AAUSAT CUBESAT 2 21 Aug 20:19:19 20:23:23 53° 260° (W) 20:27:30 437.432
CUTE 1.7 + AOD 2 21 Aug 20:28:08 20:30:18 14° 270° (W) 20:32:29 437.475
UWE-3 21 Aug 20:37:06 20:40:51 32° 263° (W) 20:44:37 435.000/436.395/437.385
Oscar 11 21 Aug 20:42:44 20:47:02 80° 259° (WSW) 20:51:22 .
CUBEBUG 2 21 Aug 20:47:41 20:50:16 16° 268° (W) 20:52:50 437.445
Max Valier Satellite 21 Aug 20:53:48 20:56:40 22° 68° (ENE) 20:59:32 145.860
PCSat 21 Aug 21:08:21 21:09:39 11° 101° (ESE) 21:10:58 145.827
ZACube-1 21 Aug 21:15:23 21:18:41 23° 266° (W) 21:22:00 437.345
DELFI C3 21 Aug 21:16:55 21:20:50 58° 75° (ENE) 21:24:48 145.870
AO-73 21 Aug 21:37:02 21:39:29 15° 269° (W) 21:41:57 145.935
EO-88 21 Aug 21:44:58 21:48:35 75° 76° (ENE) 21:52:15 145.990 - 145.960
FO-29 21 Aug 21:46:33 21:51:52 44° 98° (E) 21:56:50 435.910
STRAND 1 21 Aug 21:51:19 21:54:27 17° 300° (WNW) 21:57:35 437.568
ESTCUBE 1 21 Aug 21:54:35 21:56:11 12° 60° (ENE) 21:57:46 437.505/2401.250
PRISM 21 Aug 21:59:09 22:01:45 16° 92° (E) 22:04:19 437.425
UNISAT 6 21 Aug 22:09:30 22:13:25 33° 97° (E) 22:17:23 437.425
SO-50 21 Aug 22:22:04 22:25:50 27° 114° (ESE) 22:29:36 436.795
RS-15 21 Aug 22:23:23 22:32:27 27° 259° (W) 22:41:14 29.354- 29.394
Max Valier Satellite 21 Aug 22:27:23 22:30:23 24° 265° (W) 22:33:25 145.860
TIGRISAT 21 Aug 22:44:03 22:48:22 73° 102° (ESE) 22:52:45 435.000
PCSat 21 Aug 22:46:42 22:52:08 81° 118° (ESE) 22:57:35 145.827
DELFI C3 21 Aug 22:54:41 22:55:59 11° 271° (W) 22:57:16 145.870
LO-87 21 Aug 23:11:48 23:15:24 71° 260° (W) 23:18:58 145.935 - 145.965
ESTCUBE 1 21 Aug 23:27:47 23:32:18 82° 257° (WSW) 23:36:51 437.505/2401.250
VELOX 1 21 Aug 23:31:15 23:34:50 24° 66° (ENE) 23:38:25 145.980
SPROUT 21 Aug 23:31:27 23:35:04 28° 68° (ENE) 23:38:41 437.525
AIST 2D 21 Aug 23:31:52 23:35:02 30° 96° (E) 23:38:12 435.315
FO-29 21 Aug 23:32:13 23:36:41 25° 298° (WNW) 23:40:53 435.910
PRISM 21 Aug 23:33:18 23:37:14 43° 289° (WNW) 23:41:06 437.425
UNISAT 6 21 Aug 23:46:32 23:49:59 24° 293° (WNW) 23:53:27 437.425
50 SAT 21 Aug 23:52:42 23:53:49 11° 64° (ENE) 23:54:55 437.505
SO-50 22 Aug 00:01:56 00:06:08 38° 312° (NW) 00:10:21 436.795
NANOSAT C BR1 22 Aug 00:04:26 00:08:00 26° 96° (E) 00:11:33 145.865
POLYITAN 1 22 Aug 00:09:53 00:13:44 34° 97° (E) 00:17:34 437.675
M-CUBED/EXP-1 PRIME 22 Aug 00:22:08 00:26:28 61° 106° (ESE) 00:30:27 437.505
TIGRISAT 22 Aug 00:22:53 00:24:30 12° 299° (WNW) 00:26:07 435.000
QB50P2 22 Aug 00:24:53 00:29:02 56° 100° (E) 00:33:11 145.880/145.840
EO-79 22 Aug 00:25:14 00:29:20 51° 100° (E) 00:33:26 145.935-145.965
PCSat 22 Aug 00:32:17 00:36:11 20° 319° (NW) 00:40:07 145.827
UKube-1 22 Aug 00:41:55 00:45:29 26° 67° (ENE) 00:49:04 .
NO-84 22 Aug 00:43:36 00:46:10 28° 133° (SE) 00:48:41 435.350 FM
BUGSAT 1 22 Aug 00:50:42 00:53:43 20° 94° (E) 00:56:44 437.445
DUCHIFAT 1 22 Aug 00:53:56 00:58:08 85° 99° (E) 01:02:19 145.980
DX 1 22 Aug 01:04:48 01:09:09 68° 73° (ENE) 01:13:32 434.975-435.025
AIST 2D 22 Aug 01:05:36 01:08:01 17° 293° (WNW) 01:10:26 435.315
VELOX 1 22 Aug 01:07:02 01:11:06 34° 263° (W) 01:15:11 145.980
SPROUT 22 Aug 01:07:17 01:10:54 27° 264° (W) 01:14:32 437.525
Gurwin Techsat 1B 22 Aug 01:11:44 01:13:26 11° 88° (E) 01:15:07 435.225
50 SAT 22 Aug 01:22:46 01:26:03 46° 260° (W) 01:29:23 437.505
YUBILEINY 22 Aug 01:23:59 01:30:12 21° 61° (ENE) 01:36:22 435.215
Oscar 19 22 Aug 01:27:19 01:31:36 25° 94° (E) 01:35:52 437.125/150
BEESAT 22 Aug 01:36:53 01:39:04 13° 59° (ENE) 01:41:17 436.000
NANOSAT C BR1 22 Aug 01:40:06 01:43:38 27° 292° (WNW) 01:47:11 145.865
POLYITAN 1 22 Aug 01:46:05 01:49:19 22° 294° (WNW) 01:52:33 437.675
M-CUBED/EXP-1 PRIME 22 Aug 01:57:46 02:00:18 15° 304° (NW) 02:02:45 437.505
QB50P2 22 Aug 02:02:05 02:04:22 14° 297° (WNW) 02:06:40 145.880/145.840
EO-79 22 Aug 02:02:12 02:04:42 16° 296° (WNW) 02:07:11 145.935-145.965
ITUPSAT 1 22 Aug 02:09:57 02:13:51 26° 66° (ENE) 02:17:47 437.325
UKube-1 22 Aug 02:17:34 02:21:23 30° 263° (W) 02:25:14 .
NO-84 22 Aug 02:21:03 02:23:31 25° 330° (NNW) 02:25:59 435.350 FM
BUGSAT 1 22 Aug 02:25:32 02:29:09 32° 290° (WNW) 02:32:44 437.445
DX 1 22 Aug 02:44:12 02:45:46 12° 270° (W) 02:47:21 434.975-435.025
MOZHAYETS 4 22 Aug 02:45:33 02:49:53 46° 71° (ENE) 02:54:16
Gurwin Techsat 1B 22 Aug 02:48:43 02:54:05 90° 285° (WNW) 02:59:24 435.225
Oscar 19 22 Aug 03:06:10 03:11:03 42° 291° (WNW) 03:15:55 437.125/150
CUBESAT XI-V 22 Aug 03:09:48 03:13:01 19° 63° (ENE) 03:16:15 437.345
BEESAT 22 Aug 03:11:27 03:16:12 79° 257° (WSW) 03:20:59 436.000
YUBILEINY 22 Aug 03:19:30 03:28:15 88° 261° (W) 03:36:57 435.215
ITUPSAT 1 22 Aug 03:47:09 03:51:31 36° 263° (W) 03:55:54 437.325
AO-7 22 Aug 03:48:31 03:56:25 45° 100° (E) 04:04:15 .
MOZHAYETS 4 22 Aug 04:24:09 04:27:17 18° 268° (W) 04:30:25
KKS-1 22 Aug 04:24:42 04:28:59 47° 71° (ENE) 04:33:17 437.445
ITAMSAT 1 22 Aug 04:27:58 04:33:11 84° 105° (ESE) 04:38:22 435.822/435.867
Gurwin Techsat 1B 22 Aug 04:30:42 04:33:15 14° 303° (WNW) 04:35:46 435.225
CUBESAT XI-V 22 Aug 04:45:28 04:49:59 50° 261° (W) 04:54:34 437.345
BEESAT 3 22 Aug 04:56:20 05:00:18 64° 120° (ESE) 05:04:19 437.485
STARS 22 Aug 04:59:46 05:03:58 46° 71° (ENE) 05:08:11 437.465
DOVE 4 22 Aug 05:11:00 05:14:01 17° 90° (E) 05:16:55 437.250
BEESAT 2 22 Aug 05:13:30 05:17:02 31° 115° (ESE) 05:20:37 435.950
YUBILEINY 22 Aug 05:18:25 05:23:43 18° 284° (WNW) 05:29:02 435.215
AO-85 22 Aug 05:31:19 05:35:15 88° 131° (SE) 05:39:11 145.980
NO-84 22 Aug 05:39:36 05:40:18 11° 14° (NNE) 05:41:02 435.350 FM
AO-7 22 Aug 05:41:24 05:49:09 45° 299° (WNW) 05:56:51 .
XW-2F 22 Aug 05:45:05 05:45:58 11° 90° (E) 05:46:51 145.980 - 146.000
STRAND 1 22 Aug 05:51:15 05:54:04 15° 59° (ENE) 05:56:55 437.568
PCSat 22 Aug 05:51:27 05:54:49 16° 38° (NE) 05:58:10 145.827
KKS-1 22 Aug 06:02:50 06:05:47 17° 268° (W) 06:08:44 437.445
KAITUO 1B 22 Aug 06:06:41 06:09:02 16° 92° (E) 06:11:24 145.475/437.950
ITAMSAT 1 22 Aug 06:09:18 06:11:56 14° 302° (WNW) 06:14:34 435.822/435.867
LilacSat-2 22 Aug 06:32:53 06:36:38 45° 99° (E) 06:40:22 437.200
XW-2D 22 Aug 06:35:23 06:39:07 47° 99° (E) 06:42:51 145.860 - 145.880
BEESAT 3 22 Aug 06:35:34 06:38:15 17° 319° (NW) 06:40:58 437.485
NUDT-PHONESAT 22 Aug 06:36:31 06:39:57 33° 97° (E) 06:43:23 437.300
STARS 22 Aug 06:37:38 06:40:31 17° 267° (W) 06:43:26 437.465
CUTE-I 22 Aug 06:46:15 06:51:24 48° 99° (E) 06:56:31 437.470
XW-2B 22 Aug 06:46:25 06:50:15 62° 101° (ESE) 06:54:03 145.730 - 145.750
DOVE 4 22 Aug 06:47:41 06:52:00 44° 289° (WNW) 06:56:05 437.250
BEESAT 2 22 Aug 06:51:16 06:54:46 28° 314° (NW) 06:58:19 435.950
SO-50 22 Aug 06:51:35 06:55:46 34° 47° (NE) 06:59:58 436.795
XW-2C 22 Aug 07:05:35 07:09:26 74° 284° (WNW) 07:13:16 145.795 - 145.815
AO-85 22 Aug 07:14:27 07:16:14 13° 323° (NW) 07:18:02 145.980
NO-84 22 Aug 07:15:33 07:18:22 37° 34° (NE) 07:21:20 435.350 FM
XW-2F 22 Aug 07:16:39 07:20:26 57° 285° (WNW) 07:24:11 145.980 - 146.000
XW-2A 22 Aug 07:19:17 07:19:51 10° 91° (E) 07:20:25 145.665 - 145.685
SEEDS 22 Aug 07:19:53 07:22:44 17° 92° (E) 07:25:34 437.485
STRAND 1 22 Aug 07:27:30 07:32:37 77° 257° (WSW) 07:37:44 437.568
PCSat 22 Aug 07:33:39 07:39:07 79° 59° (ENE) 07:44:32 145.827
AO-7 22 Aug 07:37:37 07:39:46 11° 322° (NW) 07:41:56 .
KAITUO 1B 22 Aug 07:39:39 07:43:11 37° 288° (WNW) 07:46:42 145.475/437.950
HO-68 22 Aug 07:43:53 07:50:51 51° 100° (E) 07:57:46 435.675
FO-29 22 Aug 07:58:48 08:04:54 29° 63° (ENE) 08:10:30 435.910
AAUSAT CUBESAT 2 22 Aug 08:00:49 08:04:04 22° 93° (E) 08:07:18 437.432
LilacSat-2 22 Aug 08:08:22 08:10:31 15° 295° (WNW) 08:12:41 437.200
CUTE 1.7 + AOD 2 22 Aug 08:09:18 08:13:37 85° 284° (WNW) 08:17:55 437.475
XW-2D 22 Aug 08:10:53 08:12:54 14° 296° (WNW) 08:14:55 145.860 - 145.880
NUDT-PHONESAT 22 Aug 08:11:02 08:13:35 18° 293° (WNW) 08:16:08 437.300
XW-2B 22 Aug 08:22:47 08:23:55 11° 297° (WNW) 08:25:01 145.730 - 145.750
UWE-3 22 Aug 08:24:42 08:28:46 42° 99° (E) 08:32:54 435.000/436.395/437.385
CUTE-I 22 Aug 08:26:57 08:31:09 24° 297° (WNW) 08:35:18 437.470
Oscar 11 22 Aug 08:29:48 08:32:47 18° 92° (E) 08:35:45 .
SO-50 22 Aug 08:32:08 08:36:09 31° 245° (WSW) 08:40:12 436.795
CUBEBUG 2 22 Aug 08:34:56 08:39:10 86° 280° (W) 08:43:28 437.445
ISS 22 Aug 08:43:37 08:45:02 12° 131° (SE) 08:46:28 437.550
Tancredo 1 22 Aug 08:44:42 08:47:30 44° 142° (SE) 08:50:18 437.200
nSIGHT-1 22 Aug 08:49:31 08:51:28 15° 132° (SE) 08:53:24 .
XW-2A 22 Aug 08:49:32 08:52:49 44° 286° (WNW) 08:56:04 145.665 - 145.685
PRISM 22 Aug 08:49:44 08:52:02 15° 63° (ENE) 08:54:21 437.425
O/OREOS (USA 219) 22 Aug 08:52:30 08:56:27 32° 105° (ESE) 09:00:25 437.305
NO-84 22 Aug 08:53:10 08:55:38 21° 229° (SW) 08:58:12 435.350 FM
SEEDS 22 Aug 08:54:35 08:58:37 42° 288° (WNW) 09:02:37 437.485
ZACube-1 22 Aug 09:01:04 09:05:20 59° 101° (E) 09:09:39 437.345
UNISAT 6 22 Aug 09:09:16 09:13:07 32° 70° (ENE) 09:16:56 437.425
PCSat 22 Aug 09:18:50 09:21:48 15° 256° (WSW) 09:24:45 145.827
AO-73 22 Aug 09:21:21 09:25:40 88° 103° (ESE) 09:30:04 145.935
HO-68 22 Aug 09:32:04 09:38:17 34° 299° (WNW) 09:44:32 435.675
AAUSAT CUBESAT 2 22 Aug 09:35:50 09:39:35 32° 290° (WNW) 09:43:18 437.432
M-CUBED/EXP-1 PRIME 22 Aug 09:36:35 09:38:26 12° 53° (NE) 09:40:18 437.505
FO-29 22 Aug 09:42:05 09:49:33 62° 259° (W) 09:56:21 435.910
TIGRISAT 22 Aug 09:43:25 09:47:42 70° 76° (ENE) 09:51:57 435.000
Max Valier Satellite 22 Aug 09:55:44 09:58:53 26° 95° (E) 10:02:02 145.860
UWE-3 22 Aug 10:01:59 10:04:56 19° 294° (WNW) 10:07:55 435.000/436.395/437.385
Oscar 11 22 Aug 10:04:58 10:09:07 43° 288° (WNW) 10:13:14 .
AIST 2D 22 Aug 10:08:17 10:10:03 13° 66° (ENE) 10:11:51 435.315
ISS 22 Aug 10:17:47 10:21:04 85° 321° (NW) 10:24:23 437.550
Tancredo 1 22 Aug 10:20:13 10:22:46 27° 339° (NNW) 10:25:20 437.200
PRISM 22 Aug 10:22:46 10:26:51 54° 259° (W) 10:30:57 437.425
nSIGHT-1 22 Aug 10:24:13 10:27:29 72° 328° (NNW) 10:30:45 .
DELFI C3 22 Aug 10:27:21 10:31:22 86° 105° (ESE) 10:35:19 145.870
O/OREOS (USA 219) 22 Aug 10:32:03 10:35:51 27° 303° (WNW) 10:39:41 437.305
RS-15 22 Aug 10:32:25 10:43:59 53° 111° (ESE) 10:55:40 29.354- 29.394
ZACube-1 22 Aug 10:38:51 10:41:10 14° 297° (WNW) 10:43:29 437.345
EO-88 22 Aug 10:46:05 10:49:46 87° 99° (E) 10:53:27 145.990 - 145.960
UNISAT 6 22 Aug 10:46:25 10:49:52 23° 266° (W) 10:53:18 437.425
NANOSAT C BR1 22 Aug 10:57:30 11:00:48 23° 67° (ENE) 11:04:07 145.865
POLYITAN 1 22 Aug 11:03:18 11:06:55 29° 69° (ENE) 11:10:33 437.675
M-CUBED/EXP-1 PRIME 22 Aug 11:07:32 11:12:04 87° 73° (ENE) 11:16:46 437.505
QB50P2 22 Aug 11:18:04 11:22:05 46° 72° (ENE) 11:26:07 145.880/145.840
EO-79 22 Aug 11:18:16 11:22:13 42° 71° (ENE) 11:26:12 145.935-145.965
ESTCUBE 1 22 Aug 11:20:00 11:23:20 20° 93° (E) 11:26:38 437.505/2401.250
TIGRISAT 22 Aug 11:23:54 11:24:51 11° 271° (W) 11:25:48 435.000
Max Valier Satellite 22 Aug 11:29:43 11:32:36 22° 292° (WNW) 11:35:29 145.860
AIST 2D 22 Aug 11:39:39 11:42:54 38° 262° (W) 11:46:13 435.315
BUGSAT 1 22 Aug 11:41:42 11:44:23 17° 65° (ENE) 11:47:04 437.445
DUCHIFAT 1 22 Aug 11:46:09 11:50:18 69° 74° (ENE) 11:54:27 145.980
ISS 22 Aug 11:55:13 11:57:55 23° 346° (NNW) 12:00:37 437.550
Tancredo 1 22 Aug 11:56:48 11:58:38 15° 359° (N) 12:00:28 437.200
nSIGHT-1 22 Aug 12:01:40 12:04:17 21° 348° (NNW) 12:06:53 .
LO-87 22 Aug 12:10:58 12:14:28 64° 284° (WNW) 12:17:57 145.935 - 145.965
AO-85 22 Aug 12:21:38 12:24:09 15° 39° (NE) 12:26:46 145.980
Gurwin Techsat 1B 22 Aug 12:32:34 12:36:36 22° 63° (ENE) 12:40:39 435.225
NANOSAT C BR1 22 Aug 12:32:37 12:36:21 31° 263° (W) 12:40:07 145.865
POLYITAN 1 22 Aug 12:39:14 12:42:41 24° 265° (W) 12:46:09 437.675
RS-15 22 Aug 12:44:29 12:56:31 56° 315° (NW) 13:08:37 29.354- 29.394
Oscar 19 22 Aug 12:44:53 12:49:40 41° 69° (ENE) 12:54:30 437.125/150
M-CUBED/EXP-1 PRIME 22 Aug 12:46:11 12:47:03 10° 268° (W) 12:47:56 437.505
SPROUT 22 Aug 12:51:03 12:55:07 44° 99° (E) 12:59:11 437.525
DX 1 22 Aug 12:54:51 12:55:36 10° 89° (E) 12:56:20 434.975-435.025
EO-79 22 Aug 12:55:24 12:58:11 17° 268° (W) 13:00:58 145.935-145.965
QB50P2 22 Aug 12:55:33 12:58:07 16° 268° (W) 13:00:41 145.880/145.840
VELOX 1 22 Aug 12:55:35 12:59:45 39° 98° (E) 13:03:51 145.980
ESTCUBE 1 22 Aug 12:56:00 13:00:18 42° 290° (WNW) 13:04:35 437.505/2401.250
AO-7 22 Aug 13:00:20 13:05:10 17° 45° (NE) 13:10:00 .
BEESAT 3 22 Aug 13:12:12 13:16:07 49° 52° (NE) 13:19:56 437.485
BUGSAT 1 22 Aug 13:15:33 13:19:26 41° 261° (W) 13:23:18 437.445
DUCHIFAT 1 22 Aug 13:25:43 13:26:24 10° 271° (W) 13:27:05 145.980
BEESAT 2 22 Aug 13:29:55 13:33:28 28° 47° (NE) 13:36:58 435.950
Tancredo 1 22 Aug 13:32:04 13:34:32 24° 19° (NNE) 13:36:58 437.200
ISS 22 Aug 13:32:46 13:35:12 19° 6° (N) 13:37:38 437.550
nSIGHT-1 22 Aug 13:39:01 13:41:29 19° 8° (N) 13:43:55 .
AO-85 22 Aug 14:00:44 14:05:03 86° 240° (WSW) 14:09:42 145.980
UKube-1 22 Aug 14:02:57 14:07:00 38° 98° (E) 14:11:01 .
ITAMSAT 1 22 Aug 14:09:26 14:13:07 20° 61° (ENE) 14:16:47 435.822/435.867
Gurwin Techsat 1B 22 Aug 14:11:00 14:16:10 52° 260° (W) 14:21:23 435.225
50 SAT 22 Aug 14:15:39 14:18:58 54° 285° (WNW) 14:22:13 437.505
Oscar 19 22 Aug 14:24:51 14:29:06 26° 266° (W) 14:33:24 437.125/150
YUBILEINY 22 Aug 14:27:47 14:33:59 22° 79° (ENE) 14:40:12 435.215
SPROUT 22 Aug 14:27:52 14:30:41 18° 296° (WNW) 14:33:30 437.525
DX 1 22 Aug 14:27:55 14:32:17 74° 286° (WNW) 14:36:36 434.975-435.025
VELOX 1 22 Aug 14:32:36 14:35:56 21° 295° (WNW) 14:39:13 145.980
AO-7 22 Aug 14:48:09 14:56:24 66° 66° (ENE) 15:04:40 .
BEESAT 3 22 Aug 14:50:50 14:53:16 16° 249° (WSW) 14:55:40 437.485
RS-15 22 Aug 15:02:27 15:12:35 28° 346° (NNW) 15:22:34 29.354- 29.394
Tancredo 1 22 Aug 15:07:00 15:09:52 56° 217° (SW) 15:12:42 437.200
BEESAT 2 22 Aug 15:07:37 15:11:12 31° 245° (WSW) 15:14:45 435.950
ISS 22 Aug 15:09:07 15:12:16 43° 25° (NNE) 15:15:25 437.550
BEESAT 22 Aug 15:11:01 15:14:52 24° 94° (E) 15:18:43 436.000
nSIGHT-1 22 Aug 15:15:13 15:18:24 49° 28° (NNE) 15:21:34 .
UKube-1 22 Aug 15:39:33 15:42:47 21° 295° (WNW) 15:45:59 .
ITUPSAT 1 22 Aug 15:45:59 15:50:40 52° 100° (E) 15:55:19 437.325
ITAMSAT 1 22 Aug 15:47:01 15:52:08 58° 259° (W) 15:57:16 435.822/435.867
MOZHAYETS 4 22 Aug 16:16:07 16:20:46 85° 284° (WNW) 16:25:24
DOVE 4 22 Aug 16:16:11 16:20:24 25° 66° (ENE) 16:24:30 437.250
YUBILEINY 22 Aug 16:20:56 16:29:44 80° 279° (W) 16:38:33 435.215
CUTE-I 22 Aug 16:32:40 16:35:03 13° 57° (ENE) 16:37:26 437.470
CUBESAT XI-V 22 Aug 16:40:53 16:45:17 37° 97° (E) 16:49:36 437.345
AO-7 22 Aug 16:42:42 16:49:41 29° 265° (W) 16:56:43 .
ISS 22 Aug 16:45:50 16:48:39 27° 223° (SW) 16:51:26 437.550
BEESAT 22 Aug 16:48:20 16:52:44 38° 291° (WNW) 16:57:08 436.000
nSIGHT-1 22 Aug 16:52:00 16:54:35 22° 225° (SW) 16:57:10 .
